Regional Weather Roundup
Issued by NWS

Home | Current Version | Previous Version | Text Only | Print | Product List | Glossary Off
Versions: 1 2 3 4 5 6 7 8 9 10 11 12 13 14 15 16 17 18 19 20 21 22 23 24 25 26 27 28 29 30 31 32 33 34 35 36 37 38 39 40 41 42 43 44 45 46 47 48 49 50

000
ASUS43 KMPX 252210
RWRMN
WEATHER ROUNDUP FOR MINNESOTA
NATIONAL WEATHER SERVICE TWIN CITIES/CHANHASSEN MN
500 PM CDT FRI MAY 25 2018


NOTE: "FAIR" INDICATES FEW OR NO CLOUDS BELOW 12,000 FEET WITH NO
SIGNIFICANT WEATHER AND/OR OBSTRUCTIONS TO VISIBILITY. N/A MEANS
CURRENT SKY AND/OR WEATHER CONDITIONS ARE NOT AVAILABLE.

MNZ060>063-068>070-252300-
   Twin Cities Metro

CITY           SKY/WX    TMP DP  RH WIND       PRES   REMARKS
TWIN CITIES    PTSUNNY   89  60  37 W12G22    29.67F
ST PAUL        FAIR      87  62  43 W6        29.67F
CRYSTAL        CLOUDY    83  58  42 W35G49    29.70R THUNDER
BLAINE         PTSUNNY   88  61  40 SW14      29.67F
LAKEVILLE      FAIR      86  61  42 W5        29.69F
EDEN PRAIRIE   FAIR      88  61  40 SW12      29.68F
SOUTH ST PAUL  FAIR      88  58  36 SW7       29.67F
LAKE ELMO      FAIR      86  64  48 SW7       29.68F
$$
MNZ001>005-007-008-013>017-022>024-027-028-252300-
   Northwest Minnesota

CITY           SKY/WX    TMP DP  RH WIND       PRES   REMARKS
BEMIDJI        FAIR      87  50  28 W8        29.64F
HALLOCK        TSTM      86  50  28 S5        29.53F
ROSEAU         FAIR      88  57  35 SW6       29.57F
WARROAD        FAIR      84  61  45 SW10G21   29.58F
THIEF RVR FALL PTSUNNY   88  51  28 SW13      29.59F
CROOKSTON      FAIR      90  50  25 W15G21    29.59S
FOSSTON        FAIR      90  45  20 W10G20    29.63F
DETROIT LAKES  FAIR      88  46  23 SW12      29.67F
MOORHEAD       FAIR      91  45  19 W9        29.62F
PARK RAPIDS    FAIR      90  48  23 NW15G24   29.65F
MAHNOMEN       FAIR      90  47  22 W9G16     29.62F
$$
MNZ006-009>011-018-025>026-252300-
   North Central Minnesota

CITY           SKY/WX    TMP DP  RH WIND       PRES   REMARKS
BAUDETTE       FAIR      87  56  34 W13G18    29.59F
FLAG ISLAND    FAIR      75  57  53 CALM      29.56F
INTL FALLS     FAIR      86  54  33 W10G20    29.59F
WASKISH        FAIR      82  59  44 CALM      29.62F
BIG FORK       FAIR      88  54  31 SW13      29.62F
LONGVILLE      FAIR      84  52  32 W7        29.65F
GRAND RAPIDS   FAIR      85  56  37 W10G18    29.66F
ORR            FAIR      84  50  30 W6        29.59F
COOK           FAIR      84  55  37 SW12      29.63F
WALKER         FAIR      86  48  26 W13G18    29.64F
$$
MNZ012-019>021-037-252300-
   Northeast Minnesota

CITY           SKY/WX    TMP DP  RH WIND       PRES   REMARKS
DULUTH         FAIR      85  59  41 W18G25    29.66R THUNDER
ELY            FAIR      82  52  34 W12G17    29.63F
HIBBING        FAIR      84  55  36 W12G22    29.64F
EVELETH        FAIR      82  56  41 W12G17    29.65F
DULUTH HARBOR  TSTM      81  63  54 W17       29.62S
TWO HARBORS    FAIR      86  61  42 SW14G22   29.60S THUNDER
SILVER BAY     FAIR      84  64  51 S6        29.60F
GRAND MARAIS     N/A     59  55  87 W5        29.59F
G MARAIS ARPRT FAIR      72  57  60 SW5       29.65F
$$
MNZ029>031-032-039>041-046>048-054>057-064-252300-
   West Central Minnesota

CITY           SKY/WX    TMP DP  RH WIND       PRES   REMARKS
FERGUS FALLS   FAIR      91  54  27 NW20G28   29.60F
WHEATON        SUNNY     86  55  35 SW5       29.67F
MORRIS         MOSUNNY   90  52  27 NW13      29.67F
ALEXANDRIA     FAIR      88  57  34 SW14      29.70F
ELBOW LAKE     FAIR      90  55  30 NW9G17    29.67F
WADENA         FAIR      88  54  31 W7        29.67F
GLENWOOD       FAIR      84  59  42 SW8       29.70R
APPLETON       CLOUDY    88  55  33 W12       29.68F
BENSON         CLOUDY    90  52  27 NW16G23   29.69F
ORTONVILLE     SUNNY     90  54  29 SW5       29.68F
MADISON        CLOUDY    90  54  29 NW7       29.69F
WILLMAR        FAIR      82  59  44 N7        29.72S
$$
MNZ033>034-036-042>043-049>051-058-059-252300-
   Central Minnesota

CITY           SKY/WX    TMP DP  RH WIND       PRES   REMARKS
ST CLOUD       FAIR      87  51  28 W6        29.67F
SAUK CENTRE    FAIR      87  55  33 W10G18    29.68F
PAYNESVILLE    FAIR      84  64  50 CALM      29.69F
AITKIN         FAIR      86  52  30 W6G17     29.64F
PINE RIVER     FAIR      84  54  34 W9G17     29.69F
BRAINERD       FAIR      90  52  27 NW10G18   29.66F
STAPLES        FAIR      90  48  24 W15       29.67F
LONG PRAIRIE   FAIR      86  57  37 SW6       29.69F
LITTLE FALLS   FAIR      86  57  37 SW7G16    29.67F
LITCHFIELD     FAIR      81  64  57 E5        29.71F
BUFFALO        CLOUDY    66  59  78 NE12      29.72R
MAPLE LAKE     FAIR      68  63  83 S5        29.71S
HUTCHINSON     FAIR      81  61  51 N10G18    29.72R
$$
MNZ037-044-045-052-053-252300-
   East Central Minnesota

CITY           SKY/WX    TMP DP  RH WIND       PRES   REMARKS
PRINCETON      FAIR      88  55  33 W8        29.68R
MORA           FAIR      86  54  32 W8        29.67F
CAMBRIDGE      FAIR      90  64  43 W6        29.67S HX  91
RUSH CITY      FAIR      87  55  33 NW3       29.66F
MOOSE LAKE     FAIR      84  55  37 W9        29.63F
HINCKLEY       FAIR      86  61  42 W3        29.65F
CLOQUET        FAIR      79  59  50 SW5       29.67S
MCGREGOR       FAIR      86  54  32 W13       29.65F
$$
MNZ071>073-080-081-089-090-097-098-252300-
   Southwest Minnesota

CITY           SKY/WX    TMP DP  RH WIND       PRES   REMARKS
MONTEVIDEO     CLOUDY    88  45  22 NW9       29.70F
CANBY          CLOUDY    80  66  62 E9        29.73F
MARSHALL       TSTM      72  59  63 N18G29    29.77R
REDWOOD FALLS  CLOUDY    85  59  41 SW12      29.70S
OLIVIA         MOSUNNY   82  59  44 SW9       29.69S
PIPESTONE      MOSUNNY   88  54  31 NW12G21   29.75S
WINDOM         SUNNY     91  55  29 SW7       29.71F
WORTHINGTON      N/A     91  56  30 S13       29.73F
JACKSON        MOSUNNY   86  55  35 CALM      29.74F
TRACY          TSTM      84  53  33 W16G25    29.75R
SLAYTON        MOSUNNY   90  50  25 W13G18    29.74F
$$
MNZ065>067-074>077-082>085-091>093-252300-
   South Central Minnesota

CITY           SKY/WX    TMP DP  RH WIND       PRES   REMARKS
MANKATO        FAIR      90  56  31 NW6       29.70F
NEW ULM        MOSUNNY   88  54  31 W7        29.70F
ST JAMES       SUNNY     90  50  25 W7        29.70F
FAIRMONT       SUNNY     90  56  31 SW12G18   29.72F
GLENCOE        FAIR      89  57  33 SW8       29.69S
FARIBAULT      FAIR      88  63  42 CALM      29.71F
OWATONNA       FAIR      84  66  54 S12       29.72F
WASECA         FAIR      84  61  45 SE12      29.73F
ALBERT LEA     FAIR      72  59  64 CALM      29.75F
$$
MNZ078>079-086>088-094>096-252300-
   Southeast Minnesota

CITY           SKY/WX    TMP DP  RH WIND       PRES   REMARKS
ROCHESTER      FAIR      77  65  66 W13       29.72F
RED WING       FAIR      90  54  29 W9        29.66F
STANTON        FAIR      87  66  50 SW12      29.68F
DODGE CENTER   FAIR      75  61  60 W9        29.73F
WINONA         CLOUDY    70  63  78 SE12      29.77R
AUSTIN         FAIR      72  55  56 S9        29.74F
PRESTON        FAIR      83  61  47 W7        29.72F
$$
ABBREVIATIONS USED IN REMARKS
   TC - TEMPERATURES IN CELSIUS
  WCI - WIND CHILL INDEX
   HX - HEAT INDEX
  VSB - VISIBILITY
$$




USA.gov is the U.S. government's official web portal to all federal, state and local government web resources and services.